Погода в Надворной

Украина / Ивано-Франковская область     48°37′31″N   24°34′22″E
темп.,
°C
ветер,
м/с
пор.,
м/с
влажн.,
%
обл.,
%
осадки,
мм/ч
давл.,
гПа
погр.,
м
27 ноября, сб
сб2723:00+5ююв2277100 0.0 99332
02:00+6ю2679100 0.1 993336
05:00+7юз71673100 0.0 9921145
08:00+5юв1180100 0.0 99516
11:00+7ююз156665 0.0 997533
14:00+8зюз376366 0.0 9981167
17:00+5ю337547 0.0 100035
20:00+4ю228237 0.0 100118
28 ноября, вс
вс2823:00+3ю22869 0.0 100218
02:00+4ю2284100 0.0 100115
05:00+4ююз1183100 0.0 100110
08:00+6юз1181100 0.1 100015
11:00+7ю1178100 0.1 99928
14:00+9ююв2571100 0.7 998269
17:00+6ю3484100 0.0 99748
20:00+6ю2285100 0.0 99631
29 ноября, пн
пн2923:00+6ю2280100 0.0 99417
02:00+6ююз1176100 0.0 99213
05:00+6ю2280100 0.0 99015
08:00+7юз248198 0.1 99180
11:00+4с3685100 0.3 995322
14:00+2ссз4686100 0.3 996384
17:000сз598865 0.1 998457
20:00+1сз487538 0.4 1000504
30 ноября, вт
вт3023:00−1сз48765 0.0 1001271
02:00−2сз37806 0.0 1004187
05:00−2сз267654 0.0 1004140
08:00−1зсз497057 0.0 1006374
11:00+1зсз6957100 0.0 10071274
14:00+1сз596188 0.0 10071319
17:00−2сз34755 0.0 100872
20:00−2юз22715 0.0 100729
1 декабря, ср
ср123:000юз61555100 0.0 1004887
02:00+2зюз81851100 0.0 10021141
05:00+2зюз91751100 0.0 1002761
08:00+2з51153100 0.0 1004445
11:00+4зюз6125293 0.0 10061664
14:00+5з5125198 0.0 10071684
17:00+1ю2269100 0.0 100716
20:00+1ю2279100 0.0 100631